Diretta Meteo Napoli-Capodichino, Italiamercoledì 24 luglio ore 06:50

Mappa
Sereno 26 °C Sereno 24 Ore: T.min 24 T.max 36
Ponente Nord/Nord-Est Km/h 7.4 Punto di rugiada: 12 °C Umidità: 41% Visibilità: 10 Km
Il sole sorge alle: 05:50 Il sole tramonta alle: 20:28
24 Luglio 2019 06:50 tempo osservato: Sereno Sereno 26 41 1015 vento: Nord N/NE 7.4
24 Luglio 2019 05:50 tempo osservato: Sereno Sereno 24 47 1015 vento: Nord N 5.5
24 Luglio 2019 05:20 tempo osservato: Sereno Sereno 25 44 1015 vento: Nord N 5.5
24 Luglio 2019 04:50 tempo osservato: Sereno Sereno 24 47 1015 vento: Nord N 5.5
24 Luglio 2019 04:20 tempo osservato: Sereno Sereno 26 39 1015 vento: Nord N 3.7
24 Luglio 2019 03:50 tempo osservato: Sereno Sereno 26 39 1016 vento: Nord NE 7.4
24 Luglio 2019 03:20 tempo osservato: Sereno Sereno 26 41 1016 vento: Nord N 3.7
24 Luglio 2019 02:50 tempo osservato: Sereno Sereno 25 44 1016 vento: Nord N 5.5
24 Luglio 2019 02:20 tempo osservato: Sereno Sereno 27 39 1016 vento: Nord N 3.7
24 Luglio 2019 01:50 tempo osservato: Sereno Sereno 27 39 1016 vento: Nord N 3.7
24 Luglio 2019 01:20 tempo osservato: Sereno Sereno 27 39 1016 vento: Nord N/NE 9.3
24 Luglio 2019 00:50 tempo osservato: Sereno Sereno 27 39 1016 vento: Nord N 1.8
24 Luglio 2019 00:20 tempo osservato: Sereno Sereno 28 34 1016 vento: Nord N/NE 7.4
23 Luglio 2019 23:50 tempo osservato: Sereno Sereno 28 39 1016 vento: Nord NE 7.4
23 Luglio 2019 23:20 tempo osservato: Sereno Sereno 28 48 1016 vento: Nord N/NE 7.4
23 Luglio 2019 22:50 tempo osservato: Sereno Sereno 29 51 1016 vento: Nord N 5.5
23 Luglio 2019 22:20 tempo osservato: Sereno Sereno 29 51 1016 vento: Nord N 3.7
23 Luglio 2019 21:50 tempo osservato: Sereno Sereno 28 54 1016 vento: Nord N 3.7
23 Luglio 2019 21:20 tempo osservato: Sereno Sereno 29 51 1016 vento: Nord NO 7.4
23 Luglio 2019 20:50 tempo osservato: Sereno Sereno 29 48 1016 vento: Nord NO 11.1
23 Luglio 2019 20:20 tempo osservato: Sereno Sereno 30 45 1016 vento: Nord NO 11.1
23 Luglio 2019 19:50 tempo osservato: Sereno Sereno 31 40 1016 vento: Nord O/NO 9.3
23 Luglio 2019 19:20 tempo osservato: Sereno Sereno 32 40 1016 vento: Nord NO 16.7
23 Luglio 2019 18:50 tempo osservato: Sereno Sereno 32 43 1015 vento: Nord NO 16.7
23 Luglio 2019 18:20 tempo osservato: Sereno Sereno 32 46 1015 vento: Nord O/NO 18.5
23 Luglio 2019 17:50 tempo osservato: Sereno Sereno 33 43 1015 vento: Nord NO 14.8
23 Luglio 2019 17:20 tempo osservato: Sereno Sereno 34 41 1016 vento: Nord O/NO 20.3
23 Luglio 2019 16:50 tempo osservato: Sereno Sereno 34 38 1016 vento: Nord O/NO 16.7
23 Luglio 2019 16:20 tempo osservato: Sereno Sereno 34 38 1016 vento: Nord N 9.3
23 Luglio 2019 15:50 tempo osservato: Sereno Sereno 36 23 1016 vento: Nord E 13
23 Luglio 2019 15:20 tempo osservato: Sereno Sereno 36 22 1016 vento: Nord N 11.1
23 Luglio 2019 14:50 tempo osservato: Sereno Sereno 36 22 1016 vento: Nord E/NE 16.7
23 Luglio 2019 14:20 tempo osservato: Sereno Sereno 35 21 1016 vento: Nord NE 14.8
23 Luglio 2019 13:50 tempo osservato: Sereno Sereno 36 23 1016 vento: Nord N 11.1
23 Luglio 2019 13:20 tempo osservato: Sereno Sereno 34 28 1017 vento: Nord N 13
23 Luglio 2019 12:50 tempo osservato: Sereno Sereno 33 36 1017 vento: Nord N 9.3
23 Luglio 2019 12:20 tempo osservato: Sereno Sereno 33 33 1017 vento: Nord N 7.4
23 Luglio 2019 11:50 tempo osservato: Sereno Sereno 33 36 1017 vento: Nord N/NO 9.3
23 Luglio 2019 11:20 tempo osservato: Sereno Sereno 33 38 1017 vento: Nord N/NE 9.3
23 Luglio 2019 10:50 tempo osservato: Sereno Sereno 32 38 1018 vento: Nord N 5.5
23 Luglio 2019 10:20 tempo osservato: Sereno Sereno 32 38 1018 vento: Nord N 5.5
23 Luglio 2019 09:50 tempo osservato: Sereno Sereno 31 45 1018 vento: Nord N 5.5
23 Luglio 2019 09:20 tempo osservato: Sereno Sereno 29 54 1018 vento: Nord N 3.7
23 Luglio 2019 08:50 tempo osservato: Sereno Sereno 28 61 1018 vento: Nord N 3.7
23 Luglio 2019 08:20 tempo osservato: Sereno Sereno 27 69 1018 vento: Nord N 3.7
23 Luglio 2019 07:50 tempo osservato: Sereno Sereno 26 78 1018 vento: Nord N 3.7